Location: Eferding
(48.3167°N, 14.0167°E)
Time: 10:15:54
(UTC+00:00)

Envisat - Pass Details

Date: 12 November 2019
Orbit: 764 x 766 km, 98.1° (Epoch: 06 December)

Event Time Altitude Azimuth Distance (km) Brightness Sun altitude
Rises 16:36:04 0° 155° (SSE) 3,222 6.1 -11.2°
Reaches altitude 10° 16:38:23 10° 152° (SSE) 2,299 5.3 -11.6°
Maximum altitude 16:43:23 64° 72° (ENE) 848 3.0 -12.4°
Drops below altitude 10° 16:48:26 10° 352° (N) 2,315 5.5 -13.2°
Sets 16:50:45 0° 349° (N) 3,245 6.2 -13.6°
